Temp
-6 -5 -5 -5 -5 -5 -4 -5 -5 -5 -5 -4 -5 -5 -5 -5 -5 -5 -6 -7 -6 -6 -6 -6 -6 -6 -6 -6 -6 -6 -6 -7 -6
-5 -6 -6 -6 -5 -6 -6 -4 -5 -4 -5 -5 -4 -5 -5 -5 -5 -5 -6 -6 -5 -6 -5 -6 -5 -5 -6 -6 -6 -6 -6 -6 -6
-5 -5 -6 -5 -5 -5 -5 -5 -4 -5 -4 -5 -4 -5 -5 -5 -5 -5 -5 -6 -6 -5 -6 -6 -6 -5 -5 -6 -6 -6 -6 -6 -6
-5 -5 -4 -5 -4 -4 -4 -5 -5 -5 -6 -6 -5 -5 -6 -5 -5 -5 -5 -5 -6 -6 -5 -6 -6 -6 -6 -6 -6 -6 -6 -6 -6
-4 -5 -4 -5 -5 -5 -4 -5 -6 -6 -5 -5 -5 -5 -6 -6 -5 -5 -5 -5 -5 -6 -5 -5 -5 -6 -6 -6 -6 -6 -6 -6 -5
-6 -5 -5 -5 -5 -5 -5 -5 -3 -5 -5 -6 -5 -5 -6 -5 -5 -5 -5 -4 -4 -5 -5 -5 -6 -6 -6 -6 -6 -6 -6 -5 -6
-7 -6 -7 -6 -5 -6 -5 -5 -5 -6 -6 -6 -5 -6 -6 -6 -6 -6 -5 -5 -5 -5 -5 -5 -6 -6 -7 -6 -6 -6 -6 -6 -5
-6 -6 -7 -7 -6 -6 -6 -5 -5 -6 -5 -6 -6 -6 -6 -6 -6 -5 -5 -5 -5 -5 -5 -5 -6 -6 -6 -6 -6 -6 -6 -6 -6
-5 -6 -6 -7 -6 -7 -7 -7 -5 -6 -6 -7 -7 -7 -6 -6 -6 -5 -5 -5 -6 -5 -5 -5 -5 -6 -6 -6 -7 -6 -6 -6 -6
-8 -7 -6 -7 -7 -6 -7 -7 -7 -8 -8 -8 -8 -7 -6 -6 -6 -5 -5 -5 -5 -6 -5 -6 -5 -6 -6 -6 -6 -6 -6 -6 -6
-10 -9 -8 -7 -7 -8 -7 -7 -7 -7 -8 -8 -7 -7 -7 -7 -6 -6 -5 -5 -5 -6 -6 -6 -6 -6 -6 -6 -6 -6 -7 -7 -7
-10 -9 -9 -8 -7 -7 -7 -8 -8 -8 -8 -7 -8 -8 -7 -7 -7 -6 -6 -6 -5 -6 -6 -6 -6 -6 -6 -6 -6 -6 -6 -7 -7
-9 -8 -8 -9 -9 -8 -8 -8 -8 -7 -8 -8 -8 -8 -8 -8 -7 -7 -7 -7 -6 -6 -5 -5 -6 -7 -7 -7 -7 -6 -6 -7 -7
-10 -10 -10 -9 -9 -9 -9 -9 -8 -8 -8 -9 -8 -8 -9 -8 -8 -8 -7 -7 -7 -7 -7 -7 -7 -7 -6 -6 -7 -7 -7 -7 -7
-11 -11 -11 -10 -10 -10 -10 -9 -9 -9 -9 -9 -9 -9 -9 -8 -8 -8 -8 -8 -7 -7 -7 -7 -7 -7 -7 -7 -7 -7 -7 -7 -7
-11 -11 -10 -10 -9 -10 -10 -10 -9 -9 -9 -9 -9 -9 -9 -9 -9 -9 -8 -8 -8 -8 -7 -7 -7 -7 -8 -8 -8 -7 -7 -7 -7
-11 -11 -11 -10 -10 -10 -10 -10 -10 -10 -10 -10 -10 -9 -9 -9 -9 -9 -9 -9 -9 -9 -9 -8 -8 -8 -7 -8 -8 -8 -8 -8 -8
-12 -11 -11 -11 -11 -11 -11 -10 -10 -10 -10 -10 -10 -10 -10 -10 -10 -10 -10 -9 -9 -9 -9 -9 -9 -9 -9 -8 -8 -8 -8 -8 -8
-13 -13 -12 -12 -12 -12 -11 -11 -11 -11 -10 -10 -11 -10 -11 -11 -10 -10 -10 -10 -10 -10 -10 -10 -9 -9 -9 -9 -9 -9 -9 -9 -9
-13 -13 -13 -13 -12 -12 -12 -12 -12 -12 -11 -11 -11 -11 -11 -10 -10 -10 -11 -10 -11 -10 -10 -10 -10 -10 -10 -10 -10 -10 -10 -10 -9
Height
5894 5892 5898 5902 5906 5909 5911 5917 5919 5926 5929 5933 5936 5939 5940 5940 5937 5939 5946 5946 5946 5944 5948 5947 5949 5951 5952 5952 5953 5955 5956 5957 5959
5892 5892 5895 5900 5902 5905 5908 5915 5919 5922 5924 5930 5934 5938 5940 5941 5940 5940 5941 5941 5947 5941 5921 5946 5948 5952 5953 5953 5952 5954 5954 5956 5958
5891 5894 5896 5897 5899 5903 5905 5912 5917 5918 5919 5926 5930 5934 5938 5939 5940 5942 5943 5941 5942 5943 5936 5945 5934 5950 5953 5953 5952 5952 5954 5955 5956
5890 5891 5894 5895 5897 5901 5907 5908 5911 5914 5917 5917 5923 5928 5933 5935 5936 5939 5942 5943 5943 5943 5943 5948 5951 5952 5952 5951 5951 5952 5954 5954 5954
5887 5890 5891 5895 5893 5898 5896 5899 5908 5911 5917 5916 5919 5924 5926 5929 5930 5931 5937 5940 5941 5943 5946 5949 5949 5950 5950 5949 5949 5950 5952 5953 5953
5883 5887 5888 5890 5894 5896 5899 5899 5880 5900 5903 5910 5913 5916 5919 5924 5926 5927 5927 5932 5935 5937 5939 5942 5943 5944 5944 5945 5946 5949 5949 5951 5951
5882 5885 5886 5886 5886 5892 5896 5894 5884 5890 5896 5909 5908 5909 5914 5917 5923 5925 5925 5926 5928 5930 5931 5933 5935 5937 5939 5941 5944 5946 5947 5947 5948
5878 5881 5883 5884 5883 5882 5888 5892 5890 5882 5899 5901 5906 5907 5908 5913 5915 5918 5921 5924 5924 5925 5928 5930 5932 5934 5937 5939 5942 5941 5941 5944 5944
5870 5874 5877 5880 5880 5879 5881 5882 5888 5892 5892 5894 5901 5905 5906 5908 5912 5912 5913 5916 5918 5920 5922 5924 5928 5930 5933 5935 5939 5935 5936 5937 5938
5858 5863 5868 5873 5875 5876 5878 5882 5884 5888 5888 5890 5895 5900 5902 5903 5904 5905 5908 5908 5909 5911 5915 5916 5919 5923 5926 5927 5928 5929 5930 5931 5932
5850 5857 5859 5865 5868 5872 5875 5878 5880 5882 5884 5889 5892 5893 5895 5896 5897 5899 5900 5902 5904 5906 5908 5910 5911 5915 5914 5916 5918 5919 5920 5923 5925
5851 5854 5854 5857 5861 5864 5867 5871 5874 5877 5879 5882 5885 5886 5889 5891 5892 5894 5894 5897 5899 5901 5902 5901 5902 5905 5905 5908 5910 5911 5912 5914 5916
5841 5842 5849 5851 5854 5857 5860 5863 5866 5869 5872 5874 5878 5881 5882 5885 5886 5888 5889 5892 5894 5895 5894 5894 5896 5897 5898 5899 5901 5901 5902 5906 5908
5831 5836 5838 5843 5846 5850 5855 5857 5860 5863 5864 5867 5870 5874 5877 5879 5880 5882 5885 5886 5888 5889 5890 5890 5891 5891 5892 5893 5894 5895 5896 5899 5901
5823 5826 5830 5834 5837 5843 5846 5850 5853 5856 5858 5861 5865 5867 5870 5872 5874 5877 5880 5880 5882 5884 5885 5885 5885 5885 5887 5888 5889 5890 5891 5892 5894
5813 5817 5822 5825 5828 5832 5835 5840 5844 5848 5851 5855 5858 5861 5863 5866 5868 5869 5872 5874 5875 5877 5879 5879 5878 5879 5880 5882 5882 5882 5884 5884 5887
5804 5809 5813 5816 5819 5824 5828 5831 5836 5839 5841 5845 5848 5851 5855 5857 5858 5861 5863 5866 5868 5869 5869 5870 5871 5873 5874 5874 5875 5875 5876 5876 5878
5795 5799 5803 5807 5810 5814 5818 5821 5825 5828 5830 5833 5835 5838 5842 5844 5846 5849 5852 5855 5857 5857 5860 5861 5863 5865 5865 5865 5866 5866 5868 5868 5868
5785 5789 5793 5797 5800 5803 5807 5811 5814 5816 5819 5821 5824 5826 5829 5830 5833 5836 5839 5842 5843 5846 5848 5849 5851 5854 5855 5857 5858 5857 5858 5859 5859
5777 5781 5783 5787 5789 5792 5796 5799 5802 5804 5807 5810 5811 5814 5816 5817 5820 5823 5826 5828 5830 5831 5834 5836 5838 5841 5843 5844 5846 5846 5846 5847 5846
Wind_Speed
7 20 31 33 26 23 25 24 22 21 19 16 14 11 10 12 12 10 6 7 6 14 9 8 5 4 3 3 2 1 1 1 1
5 7 5 27 28 26 29 26 23 21 22 20 16 15 13 13 13 13 12 10 7 10 9 4 1 3 4 3 3 2 2 2 2
8 11 9 10 35 30 31 23 23 19 16 20 19 16 17 17 16 14 13 13 11 14 6 4 11 6 7 6 4 3 3 2 2
14 12 11 12 25 30 28 25 26 26 28 21 22 18 19 20 20 19 16 15 13 14 11 10 15 12 10 7 6 5 7 5 4
15 18 15 12 16 28 28 32 36 29 24 20 21 21 20 20 23 23 21 20 17 17 14 14 14 14 12 10 10 9 10 9 8
20 21 17 17 22 27 31 32 34 31 26 19 19 23 19 17 21 24 25 25 21 20 20 16 12 12 12 12 12 14 14 13 11
22 22 18 21 26 24 25 27 23 32 15 23 26 25 18 20 19 25 24 26 28 24 22 21 17 16 15 16 18 18 17 17 14
26 29 25 24 25 25 21 16 28 15 32 27 29 25 24 19 24 28 23 28 28 30 27 25 24 24 23 21 18 20 20 19 18
34 31 32 30 28 25 20 14 22 27 19 22 19 28 24 22 27 18 22 27 28 28 33 30 29 29 28 27 23 25 24 20 19
40 35 33 28 30 28 22 18 16 15 12 9 16 19 16 17 17 20 23 20 26 27 31 31 28 27 28 30 32 32 29 27 25
34 37 31 32 25 26 25 25 19 19 17 17 18 18 19 17 16 16 16 20 19 25 25 31 29 31 28 33 35 36 35 34 32
29 33 34 31 31 32 28 26 25 23 22 23 23 22 20 21 20 20 17 18 19 22 28 27 26 35 32 31 35 28 37 33 37
38 45 42 37 33 31 29 28 27 27 28 28 24 20 20 20 20 21 19 17 17 20 22 23 29 28 22 25 27 28 22 23 29
37 36 39 42 40 37 32 27 28 29 26 25 26 25 25 22 19 18 20 20 21 20 21 21 27 24 23 25 23 22 20 16 16
41 40 40 42 42 40 40 37 36 34 34 31 30 28 28 27 24 21 23 24 23 24 26 24 24 28 23 19 21 21 24 20 20
43 43 44 46 47 45 45 43 43 40 40 40 35 36 37 36 33 29 28 30 30 28 27 29 27 25 25 27 24 23 27 25 24
44 46 46 47 47 46 45 46 47 48 48 46 45 45 45 43 43 40 36 33 34 33 32 32 32 31 30 29 29 30 29 29 29
42 44 44 46 46 45 44 45 45 49 52 53 54 53 52 52 50 46 44 40 39 40 39 38 37 35 35 37 34 34 33 33 33
40 41 42 42 44 44 45 47 48 49 49 50 51 53 51 52 50 46 45 43 45 44 43 43 42 42 41 41 40 40 40 40 40
42 42 43 42 43 43 44 45 48 49 50 51 51 50 51 51 51 52 49 48 49 50 48 47 46 46 47 48 46 47 47 48 48
Wind_Direction
209 201 197 200 223 223 217 218 204 214 216 217 220 218 217 218 239 244 226 228 180 197 202 161 166 157 172 176 188 180 180 209 197
220 189 160 211 212 227 212 219 222 213 220 222 217 228 231 232 229 236 245 250 232 254 226 354 28 215 213 183 153 163 186 180 213
229 214 223 227 214 222 213 229 224 210 227 232 222 226 237 241 238 233 240 250 250 245 220 157 266 240 232 222 196 194 211 180 206
208 238 235 229 218 213 221 219 216 223 226 224 226 220 233 240 244 242 236 235 225 240 243 227 206 242 237 232 243 243 248 229 218
230 220 239 221 236 196 210 231 230 223 233 237 229 229 228 229 243 247 242 243 240 246 236 232 233 240 240 234 224 237 251 248 243
223 227 232 216 221 225 224 249 191 225 216 231 224 220 219 236 241 247 255 252 245 247 252 248 249 255 255 259 253 247 249 243 253
231 225 231 232 227 230 236 252 206 233 217 219 233 228 224 240 251 252 251 254 259 252 254 260 260 261 263 260 253 247 246 244 247
218 229 221 233 229 233 226 230 228 222 228 232 245 259 251 249 265 254 246 247 251 251 250 250 251 249 250 252 256 257 252 250 252
230 230 229 229 225 226 223 235 237 246 246 222 227 246 252 260 261 265 244 242 256 243 243 244 246 249 250 250 251 252 254 257 253
231 228 231 233 229 220 226 227 232 246 251 244 235 239 242 248 259 257 266 261 246 242 242 243 250 255 252 251 248 250 250 250 252
225 230 226 229 228 222 223 226 232 244 248 250 248 243 240 248 257 256 259 262 246 244 249 255 249 259 262 251 249 246 247 247 246
241 235 230 229 231 234 238 237 240 244 244 248 253 245 247 249 252 254 256 253 252 258 254 256 248 249 259 257 252 270 252 258 247
230 234 237 236 233 234 238 243 247 245 241 239 244 252 254 251 250 255 257 258 254 254 263 248 243 245 260 251 249 252 247 251 248
238 231 234 238 237 234 234 234 239 236 238 233 248 253 247 249 250 253 255 255 252 254 259 252 240 248 261 261 257 241 241 241 253
231 230 234 238 239 238 237 235 235 236 235 234 235 237 240 246 252 257 264 262 257 256 253 255 258 249 251 256 251 243 248 248 264
235 233 234 237 239 238 238 237 239 241 239 240 242 242 246 251 260 262 263 266 263 258 261 253 253 250 251 250 255 253 251 246 250
236 238 237 239 242 244 243 244 240 241 245 243 245 247 251 254 260 266 268 262 263 258 254 247 245 249 250 249 248 247 247 249 248
237 239 239 239 243 246 247 247 247 245 244 248 252 253 254 257 261 263 263 260 258 256 254 252 249 249 249 246 245 246 247 247 251
237 239 239 240 241 245 248 247 247 246 247 246 247 250 253 256 257 257 257 254 251 252 255 254 252 251 252 251 251 252 253 255 257
241 241 243 241 242 243 243 248 250 251 251 248 249 251 251 252 253 253 254 255 251 253 252 252 252 253 254 254 254 254 256 261 265